Regional Weather Roundup
Issued by NWS

Home | Current Version | Previous Version | Graphics & Text | Print | Product List | Glossary On
Versions: 1 2 3 4 5 6 7 8 9 10 11 12 13 14 15 16 17 18 19 20 21 22 23 24 25 26 27 28 29 30 31 32 33 34 35 36 37 38 39 40 41 42 43 44 45 46 47 48 49 50
829
ASUS43 KTOP 210808
RWRKS

WEATHER ROUNDUP FOR KANSAS
NATIONAL WEATHER SERVICE GOODLAND KS
200 AM CST TUE FEB 21 2017

NOTE:  "FAIR" INDICATES FEW OR NO CLOUDS BELOW 12,000 FEET WITH NO
SIGNIFICANT WEATHER AND/OR OBSTRUCTIONS TO VISIBILITY.

KSZ001>006-013>018-027>032-041>047-210900-
NORTHWEST KANSAS

CITY           SKY/WX    TMP DP  RH WIND       PRES   REMARKS
GOODLAND       CLOUDY    41  14  33 SW10      30.00F
HAYS           CLOUDY    30  27  88 W5        30.01S
HILL CITY      CLOUDY    32  25  75 W7        30.01R
RUSSELL        CLEAR     32  28  85 W6        29.99S
$$

KSZ061>065-074>080-084>089-210900-
SOUTHWEST KANSAS

CITY           SKY/WX    TMP DP  RH WIND       PRES   REMARKS
DODGE CITY     CLOUDY    37  25  61 W6        30.03S
ELKHART          N/A     35  11  37 W7          N/A
GARDEN CITY    CLOUDY    32  18  56 NW7       30.04R
GREAT BEND     CLOUDY    33  30  88 W7        30.01S
LIBERAL        CLOUDY    34  16  47 W10       30.06R WCI  26
PRATT          CLEAR     33  29  86 NW5       30.02R
$$

KSZ066>073-081>083-090>101-210900-
SOUTHEAST KANSAS

CITY           SKY/WX    TMP DP  RH WIND       PRES   REMARKS
CHANUTE        FOG       44  42  93 NW3       29.92S VSB 1/4
COFFEYVILLE    FOG       48  47  96 N3        29.92S VSB 1/4
HUTCHINSON     CLEAR     47  39  74 NE7       29.98S
MEDICINE LODGE   N/A     41  34  76 NW3       30.00R
NEWTON         CLEAR     44  41  89 N10       29.98R
PARSONS        FOG       44  43  96 CALM      29.92F VSB 1/4
WICHITA INTL   CLEAR     49  42  77 N8        29.97R
WICHITA JABRA  CLEAR     46  43  89 N9        29.97R
WICHITA MCCONL CLEAR     49  43  79 N7        29.97R
WINFIELD       CLEAR     49  45  86 N8        29.96R
$$

KSZ007>012-019>026-033>040-048>060-102>105-210900-
NORTHEAST KANSAS

CITY           SKY/WX    TMP DP  RH WIND       PRES   REMARKS
CONCORDIA      CLEAR     40  36  86 W5        29.98S
EMPORIA        CLEAR     47  44  90 NW7       29.94R
LAWRENCE       PTCLDY    49  46  90 NW8       29.94R
MANHATTAN      CLEAR     42  39  89 CALM      29.98R
MARYSVILLE       N/A     36  36 100 NW3       29.97S FOG
OLATHE IND     CLOUDY    50  49  96 N8        29.91F
OLATHE EXE     CLOUDY    51  51 100 NW5       29.91F
SALINA         CLEAR     42  36  79 NW3       29.99R
TOPEKA BILLARD PTCLDY    45  42  89 W3        29.96R
TOPEKA FORBES  PTCLDY    44  42  93 N7        29.95R
$$




USA.gov is the U.S. government's official web portal to all federal, state and local government web resources and services.